Regional Weather Roundup
Issued by NWS

Home | Current Version | Previous Version | Text Only | Print | Product List | Glossary Off
Versions: 1 2 3 4 5 6 7 8 9 10 11 12 13 14 15 16 17 18 19 20 21 22 23 24 25 26 27 28 29 30 31 32 33 34 35 36 37 38 39 40 41 42 43 44 45 46 47 48 49 50

867
ASUS43 KOAX 260002
RWRNE

WEATHER ROUNDUP FOR NEBRASKA
NATIONAL WEATHER SERVICE OMAHA NE
700 PM CDT SAT MAR 25 2017

NOTES: SATELLITE DATA IS BEING USED TO AUGMENT CLOUD COVER ABOVE
       12000 FEET.
       "FAIR" INDICATES FEW OR NO CLOUDS BELOW 12,000 FEET WITH NO
       SIGNIFICANT WEATHER AND/OR OBSTRUCTIONS TO VISIBILITY.

  * THESE STATIONS DO NOT REPORT WEATHER SUCH AS RAIN...SNOW OR FOG.

NEZ001>004-019>022-054>056-260100-
NEBRASKA PANHANDLE

CITY           SKY/WX    TMP DP  RH WIND       PRES   REMARKS
SCOTTSBLUFF    CLOUDY    65  31  28 SE10      29.80F
6HR MIN TEMP:  62; 6HR MAX TEMP:  69;

ALLIANCE       CLOUDY    60  31  33 SE10      29.83S
6HR MIN TEMP:  60; 6HR MAX TEMP:  66;

CHADRON        MOSUNNY   65  32  29 E5        29.79S
6HR MIN TEMP:  65; 6HR MAX TEMP:  69;

KIMBALL        CLOUDY    59  33  36 S13       29.86F
SIDNEY         CLOUDY    57  32  38 S8        29.87S
6HR MIN TEMP:  56; 6HR MAX TEMP:  63;

$$

NEZ057>060-069>072-079>082-260100-
SOUTHWEST NEBRASKA

CITY           SKY/WX    TMP DP  RH WIND       PRES   REMARKS
NORTH PLATTE   SUNNY     60  28  29 SE8       29.87R
6HR MIN TEMP:  55; 6HR MAX TEMP:  66;

IMPERIAL       CLOUDY    58  28  32 S5        29.88S
6HR MIN TEMP:  54; 6HR MAX TEMP:  61;

LEXINGTON      CLOUDY    47  41  79 E10       29.91S
MCCOOK         SUNNY     57  43  59 E13       29.87R
6HR MIN TEMP:  55; 6HR MAX TEMP:  65;

OGALLALA       CLOUDY    61  24  24 S3        29.88S
$$

NEZ005>010-023>029-035>040-094-260100-
NORTH CENTRAL NEBRASKA

CITY           SKY/WX    TMP DP  RH WIND       PRES   REMARKS
VALENTINE      SUNNY     58  27  30 SE12      29.86F
6HR MIN TEMP:  56; 6HR MAX TEMP:  63;

AINSWORTH      CLEAR     53  39  59 E9        29.90R
BROKEN BOW     PTCLDY    47  41  80 E9        29.90S
6HR MIN TEMP:  43; 6HR MAX TEMP:  53;

O`NEILL        CLOUDY    40  38  95 E8        29.95S FOG     WCI  34
ORD            CLOUDY    42  37  82 E8        29.92S
6HR MIN TEMP:  39; 6HR MAX TEMP:  44;

THEDFORD       SUNNY     61  28  28 E7        29.88R
$$

NEZ041-046>049-061>064-073>077-083>087-260100-
SOUTH CENTRAL NEBRASKA

CITY           SKY/WX    TMP DP  RH WIND       PRES   REMARKS
GRAND ISLAND   CLOUDY    40  40 100 NE8       29.94S FOG     WCI  34
6HR MIN TEMP:  38; 6HR MAX TEMP:  41;

AURORA         CLOUDY    39  38  99 N9        29.94S FOG     WCI  33
HASTINGS       CLOUDY    41  38  89 NE10      29.93F
6HR MIN TEMP:  38; 6HR MAX TEMP:  42;

HEBRON         CLOUDY    40  38  94 N8        29.93S FOG     WCI  35
HOLDREGE       CLOUDY    42  40  91 N6        29.92S
KEARNEY *      CLOUDY    43  37  81 NE9       29.93R
YORK           CLOUDY    39  39 100 NE13      29.94S FOG     WCI  32
$$

NEZ011>018-030>034-042>045-260100-
NORTHEAST NEBRASKA

CITY           SKY/WX    TMP DP  RH WIND       PRES   REMARKS
NORFOLK        CLOUDY    39  37  92 NE10      29.95S FOG     WCI  32
6HR MIN TEMP:  38; 6HR MAX TEMP:  39;

ALBION         CLOUDY    41  38  89 NE6       29.95S FOG
BLAIR          CLOUDY    41  39  93 NE8       29.93R
FREMONT        CLOUDY    40  40  99 N5        29.95R
TEKAMAH        CLOUDY    42  39  89 N13       29.95R
6HR MIN TEMP:  40; 6HR MAX TEMP:  42; 6HR PCP: TRACE;

WAYNE          CLOUDY    39  39  99 N10       29.96S FOG     WCI  33
$$

NEZ050>053-065>068-078-088>093-260100-
SOUTHEAST NEBRASKA

CITY           SKY/WX    TMP DP  RH WIND       PRES   REMARKS
LINCOLN        CLOUDY    41  39  93 N10       29.95R
6HR MIN TEMP:  41; 6HR MAX TEMP:  43; 6HR PCP: TRACE;

OMAHA EPPLEY   CLOUDY    43  37  79 N10       29.94R
6HR MIN TEMP:  43; 6HR MAX TEMP:  44; 6HR PCP: TRACE;

BEATRICE       CLOUDY    41  40  97 N9        29.93R FOG
FALLS CITY     CLOUDY    43  41  93 N6        29.90R
6HR MIN TEMP:  43; 6HR MAX TEMP:  46; 6HR PCP:  0.10;

NEBRASKA CITY  CLOUDY    41  41 100 NE9       29.91S FOG
PLATTSMOUTH    CLOUDY    41  39  91 N7        29.92S FOG
$$

NEZ044-045-051>053-067-260100-
OMAHA AREA

CITY           SKY/WX    TMP DP  RH WIND       PRES   REMARKS
OMAHA EPPLEY   CLOUDY    43  37  79 N10       29.94R
6HR MIN TEMP:  43; 6HR MAX TEMP:  44; 6HR PCP: TRACE;

BLAIR          CLOUDY    41  39  93 NE8       29.93R
FREMONT        CLOUDY    40  40  99 N5        29.95R
MILLARD        CLOUDY    43  41  91 N5        29.94R
OFFUTT AFB     LGT RAIN  41  40  93 N7        29.93R FOG
PLATTSMOUTH    CLOUDY    41  39  91 N7        29.92S FOG
WAHOO          CLOUDY    40  38  93 N13       29.94S WCI  33
$$




USA.gov is the U.S. government's official web portal to all federal, state and local government web resources and services.